sat.trackr.live / text

‹ back to catalog

YUNHAI-2 02D

NORAD 59283 · 2024-052D

PAYLOAD ACTIVE UNKNOWN

§ Identity

Operator
Country
PRC
Launch date
2024-03-21
Launch site
JSC
Launch vehicle
Mass (kg)
RCS (m²)

External: N2YO · Heavens-Above · Gunter

§ Orbital elements

Epoch: 2026-05-25T01:51:33.463296Z

Period
100.84 min
Inclination
50.0087°
Eccentricity
0.0004644
Mean motion
14.27986882 rev/d
Perigee alt
795.1 km
Apogee alt
801.8 km
Semi-major
7,176.6 km
B*
6.9147e-5
RAAN
0.2965°
Arg perigee
139.4091°
Mean anomaly
220.7171°
Rev number
11,509

§ Raw data

YUNHAI-2 02D1 59283U 24052D   26145.07747064  .00000011  00000+0  69147-4 0  99952 59283  50.0087   0.2965 0004644 139.4091 220.7171 14.27986882115097

JSON: /api/v1/satellites/59283 · /tle

For live sub-satellite position, see the globe view (requires WebGL).

§ Visibility from observer

Set your observer location to see the next 7 days of passes ≥ 10°. The values pass through the URL so the page stays shareable.

No JS? Fill the form by hand. The geolocation button needs JavaScript.